Location: Newark
(37.8333°N, 119.5000°W)
Time: 00:59:42
(UTC+00:00)

Tiros 1 despin weight - Pass Details

Date: 28 August 2019
Orbit: 594 x 642 km, 48.2° (Epoch: 19 September)

Event Time Altitude Azimuth Distance (km) Brightness Sun altitude
Rises 04:56:12 0° 234° (SW) 2,816 ? -26.0°
Reaches altitude 10° 04:58:28 10° 234° (SW) 1,918 ? -26.3°
Enters shadow 05:00:07 22° 234° (SW) 1,292 ? -26.6°
Maximum altitude 05:02:52 88° 145° (SE) 599 - -27.0°
Drops below altitude 10° 05:07:19 10° 57° (ENE) 1,938 - -27.7°
Sets 05:09:38 0° 57° (ENE) 2,849 - -28.0°
